Weather History for Allentown, PA

Change the Weather History Date:

Friday, October 26, 2012

  Actual Average Record
Temperature  
Mean Temperature 62 °F 49 °F  
Max Temperature 65 °F 60 °F 78 °F (1963)
Min Temperature 58 °F 38 °F 24 °F (1952)
Degree Days  
Heating Degree Days 3 16  
Month to date heating degree days 252 313  
Since 1 July heating degree days 329 428  
Cooling Degree Days 0 0  
Month to date cooling degree days 3 3  
Year to date cooling degree days 1048 753  
Growing Degree Days 10 (Base 50)    
Moisture  
Dew Point 57 °F    
Average Humidity 89    
Maximum Humidity 100    
Minimum Humidity 78    
Precipitation  
Precipitation 0.00 in 0.10 in 1.06 in (2007)
Month to date precipitation 3.70 3.34  
Year to date precipitation 34.28 37.73  
Snow  
Snow 0.00 in 0.00 in 0.20 in (1962)
Month to date snowfall 0.0 0.0  
Since 1 July snowfall 0.0 0.0  
Since 1 September snowfall 0.0 0.0  
Snow Depth 0.00 in    
Sea Level Pressure  
Sea Level Pressure 30.18 in    
Wind  
Wind Speed 3 mph (ENE)    
Max Wind Speed 7 mph    
Max Gust Speed 20 mph    
Visibility 5 miles    
Events      
T = Trace of Precipitation, MM = Missing Value Source: NWS Daily Summary

Daily Weather History Graph

Daily Weather History Graph

Search for Another Location

Airport:

Trip Planner

Search our weather history database for the weather conditions in past years. The results will help you decide how hot, cold, wet, or windy it might be!

Date:

Astronomy

Oct. 26, 2012 Rise Set
Actual Time 7:25 AM EDT 6:05 PM EDT
Civil Twilight 6:57 AM EDT 6:33 PM EDT
Nautical Twilight 6:25 AM EDT 7:05 PM EDT
Astronomical Twilight 5:53 AM EDT 7:36 PM EDT
Moon 4:20 PM EDT (10/26) 4:18 AM EDT (10/26)
Length of Visible Light 11h 35m
Length of Day
10h 39m
Waxing Gibbous, 91% of the Moon is Illuminated
Oct 26
Waxing Gibbous
Oct 29
Full
Nov 6
Last Quarter
Nov 13
New
Nov 20
First Quarter

Hourly Weather History & Observations

Time (EDT) Temp. Dew Point Humidity Pressure Visibility Wind Dir Wind Speed Gust Speed Precip Events Conditions
12:09 AM 57.2 °F 57.2 °F 100% 30.22 in 2.5 mi ENE 4.6 mph - N/A   Overcast
12:51 AM 57.9 °F 57.0 °F 97% 30.22 in 2.5 mi East 4.6 mph - N/A   Overcast
1:51 AM 57.9 °F 57.0 °F 97% 30.21 in 2.5 mi East 3.5 mph - N/A   Overcast
2:29 AM 57.2 °F 55.4 °F 94% 30.21 in 2.5 mi ENE 3.5 mph - N/A   Overcast
2:51 AM 57.9 °F 57.0 °F 97% 30.22 in 2.5 mi East 4.6 mph - N/A   Overcast
3:16 AM 57.2 °F 57.2 °F 100% 30.21 in 2.5 mi Calm Calm - N/A   Overcast
3:36 AM 57.2 °F 55.4 °F 94% 30.21 in 2.5 mi ENE 3.5 mph - N/A   Overcast
3:51 AM 57.9 °F 55.9 °F 93% 30.21 in 2.5 mi Calm Calm - N/A   Overcast
4:03 AM 57.2 °F 55.4 °F 94% 30.21 in 2.5 mi NE 3.5 mph - N/A   Overcast
4:51 AM 57.9 °F 55.9 °F 93% 30.21 in 2.5 mi NE 3.5 mph - N/A   Overcast
5:20 AM 57.2 °F 55.4 °F 94% 30.20 in 2.5 mi Calm Calm - N/A   Overcast
5:51 AM 57.9 °F 55.9 °F 93% 30.20 in 2.5 mi ENE 4.6 mph - N/A   Overcast
6:32 AM 57.2 °F 55.4 °F 94% 30.20 in 2.5 mi Calm Calm - N/A   Overcast
6:51 AM 57.9 °F 55.9 °F 93% 30.21 in 2.5 mi Calm Calm - N/A   Overcast
6:59 AM 57.2 °F 55.4 °F 94% 30.21 in 5.0 mi East 3.5 mph - N/A   Overcast
7:51 AM 57.9 °F 55.9 °F 93% 30.22 in 4.0 mi Calm Calm - N/A   Overcast
8:51 AM 57.9 °F 55.9 °F 93% 30.23 in 3.0 mi Calm Calm - N/A   Overcast
9:51 AM 59.0 °F 55.9 °F 90% 30.22 in 4.0 mi East 3.5 mph - N/A   Overcast
10:20 AM 60.8 °F 55.4 °F 82% 30.22 in 5.0 mi East 5.8 mph - N/A   Overcast
10:31 AM 60.8 °F 57.2 °F 88% 30.21 in 5.0 mi East 5.8 mph - N/A   Overcast
10:51 AM 60.1 °F 57.0 °F 90% 30.22 in 5.0 mi East 3.5 mph - N/A   Overcast
11:06 AM 60.8 °F 57.2 °F 88% 30.21 in 6.0 mi East 4.6 mph - N/A   Overcast
11:18 AM 60.8 °F 57.2 °F 88% 30.22 in 2.5 mi Calm Calm - N/A   Overcast
11:25 AM 60.8 °F 57.2 °F 88% 30.22 in 4.0 mi East 3.5 mph - N/A   Overcast
11:51 AM 62.1 °F 57.0 °F 84% 30.22 in 4.0 mi East 3.5 mph - N/A   Haze
12:51 PM 63.0 °F 57.0 °F 81% 30.19 in 6.0 mi East 4.6 mph - N/A   Haze
1:51 PM 63.0 °F 57.0 °F 81% 30.17 in 7.0 mi Calm Calm - N/A   Overcast
2:51 PM 64.0 °F 57.0 °F 78% 30.15 in 7.0 mi North 3.5 mph - N/A   Overcast
3:51 PM 64.0 °F 57.0 °F 78% 30.14 in 8.0 mi Calm Calm - N/A   Overcast
4:51 PM 64.0 °F 57.0 °F 78% 30.12 in 10.0 mi East 3.5 mph - N/A   Overcast
5:51 PM 63.0 °F 57.0 °F 81% 30.12 in 10.0 mi East 4.6 mph - N/A   Overcast
6:51 PM 62.1 °F 57.0 °F 84% 30.12 in 10.0 mi ENE 3.5 mph - N/A   Overcast
7:51 PM 61.0 °F 57.0 °F 87% 30.13 in 8.0 mi NE 4.6 mph - N/A   Overcast
7:58 PM 60.8 °F 57.2 °F 88% 30.13 in 8.0 mi Calm Calm - N/A   Overcast
8:51 PM 61.0 °F 57.0 °F 87% 30.13 in 7.0 mi Calm Calm - N/A   Overcast
9:51 PM 61.0 °F 55.9 °F 83% 30.13 in 7.0 mi Calm Calm - N/A   Overcast
10:51 PM 60.1 °F 57.0 °F 90% 30.12 in 7.0 mi NNE 3.5 mph - N/A   Overcast
11:17 PM 60.8 °F 57.2 °F 88% 30.11 in 6.0 mi Calm Calm - N/A   Overcast
11:51 PM 60.1 °F 57.0 °F 90% 30.10 in 7.0 mi East 3.5 mph - N/A   Overcast